EW8080 Weather Reports


time (UTC)temp
F
wind
direction
speed
knots
gust
knots
rain 1hr
in
rain 24hr
in
rain mn
in
humidity
%
barometer
mb
20260509011024 51 209 3.5 6.1 0.00 0.00 0.00 71 1012.6
20260509010003 52 208 4.3 6.1 0.00 0.00 0.00 70 1012.3
20260509005003 52 216 4.3 5.2 0.00 0.00 0.00 69 1012.3
20260509004003 52 211 4.3 5.2 0.00 0.00 0.00 69 1012.1
20260509003003 53 214 4.3 7.0 0.00 0.00 0.00 68 1012.0
20260509002003 53 207 4.3 7.0 0.00 0.00 0.00 67 1011.4
20260509001003 54 206 2.6 4.3 0.00 0.00 0.00 66 1011.2
20260509000003 54 197 4.3 7.0 0.00 0.00 0.00 66 1011.1
20260508235003 54 187 4.3 7.0 0.00 0.00 0.00 66 1010.8
20260508234003 55 192 2.6 7.8 0.00 0.00 0.00 63 1010.8
20260508233003 56 182 1.7 8.7 0.00 0.00 0.00 63 1010.8
20260508232003 56 207 4.3 8.7 0.00 0.00 0.00 62 1010.7
20260508231003 56 233 4.3 10.4 0.00 0.00 0.00 62 1010.6
20260508230003 57 212 7.0 11.3 0.00 0.00 0.00 60 1010.4
20260508225003 58 222 4.3 11.3 0.00 0.00 0.00 58 1010.4
20260508224003 58 247 6.1 11.3 0.00 0.00 0.00 46 1010.2
20260508223003 59 246 3.5 11.3 0.00 0.00 0.00 47 1010.3
20260508222003 59 266 3.5 14.8 0.00 0.00 0.00 47 1010.1
20260508221003 59 287 6.1 14.8 0.00 0.00 0.00 45 1010.1
20260508220003 59 326 8.7 16.5 0.00 0.00 0.00 46 1010.1
20260508215003 59 336 10.4 16.5 0.00 0.00 0.00 45 1010.1
20260508214003 60 268 7.0 14.8 0.00 0.00 0.00 47 1010.0
20260508213003 60 245 7.0 14.8 0.00 0.00 0.00 46 1009.8
20260508212003 59 327 7.8 15.6 0.00 0.00 0.00 46 1009.8
20260508211004 59 260 8.7 15.6 0.00 0.00 0.00 53 1009.9
20260508210024 59 287 7.8 15.6 0.00 0.00 0.00 54 1009.8
20260508205003 57 237 6.1 14.8 0.00 0.00 0.00 60 1009.8
20260508204025 57 240 7.0 16.5 0.00 0.00 0.00 59 1009.9
20260508203003 58 238 12.2 20.9 0.00 0.00 0.00 57 1009.8
20260508202003 59 238 12.2 26.9 0.00 0.00 0.00 54 1009.6
20260508201024 60 225 12.2 26.9 0.00 0.00 0.00 52 1009.2
20260508200002 60 241 11.3 19.1 0.00 0.00 0.00 49 1009.0
20260508195003 61 229 6.1 14.8 0.00 0.00 0.00 53 1009.0
20260508194002 61 259 9.6 20.0 0.00 0.00 0.00 55 1008.8
20260508193004 61 211 10.4 20.0 0.00 0.00 0.00 55 1008.7
20260508192003 62 204 10.4 18.2 0.00 0.00 0.00 53 1008.7
20260508191003 63 194 11.3 20.0 0.00 0.00 0.00 50 1008.5
20260508190003 63 206 13.0 20.9 0.00 0.00 0.00 51 1008.8
20260508185003 63 208 12.2 24.3 0.00 0.00 0.00 51 1008.8
20260508184003 63 210 9.6 24.3 0.00 0.00 0.00 48 1008.6
20260508183003 63 208 10.4 20.0 0.00 0.00 0.00 45 1008.8
20260508182003 64 211 9.6 20.0 0.00 0.00 0.00 49 1008.9
20260508181003 65 214 11.3 20.9 0.00 0.00 0.00 48 1009.1
20260508180003 64 220 7.8 20.9 0.00 0.00 0.00 48 1009.0
20260508175024 65 220 11.3 20.0 0.00 0.00 0.00 43 1008.9
20260508174003 66 214 10.4 17.4 0.00 0.00 0.00 46 1008.8
20260508173003 65 212 9.6 17.4 0.00 0.00 0.00 45 1009.2
20260508172024 65 215 11.3 17.4 0.00 0.00 0.00 44 1009.2
20260508171003 65 195 9.6 19.1 0.00 0.00 0.00 44 1009.1
20260508170003 64 211 9.6 19.1 0.00 0.00 0.00 46 1009.3
20260508165003 65 196 10.4 17.4 0.00 0.00 0.00 42 1009.4
20260508164003 66 238 8.7 16.5 0.00 0.00 0.00 36 1009.5
20260508163024 65 255 8.7 16.5 0.00 0.00 0.00 39 1009.4
20260508162003 63 266 8.7 13.0 0.00 0.00 0.00 38 1009.5
20260508161003 63 239 5.2 19.1 0.00 0.00 0.00 36 1009.9
20260508160003 63 239 7.0 19.1 0.00 0.00 0.00 35 1010.1
20260508155003 64 280 12.2 17.4 0.00 0.00 0.00 33 1010.0
20260508154003 65 219 6.1 17.4 0.00 0.00 0.00 36 1010.0
20260508153003 65 260 12.2 17.4 0.00 0.00 0.00 34 1010.1
20260508152003 66 238 5.2 13.0 0.00 0.00 0.00 38 1010.1
20260508151004 65 243 6.1 13.0 0.00 0.00 0.00 35 1010.2
20260508150003 64 267 4.3 13.0 0.00 0.00 0.00 34 1010.2
20260508145003 62 258 7.0 13.0 0.00 0.00 0.00 39 1010.3
20260508144003 63 306 5.2 15.6 0.00 0.00 0.00 36 1010.3
20260508143003 62 293 9.6 19.1 0.00 0.00 0.00 36 1010.3
20260508142003 61 315 9.6 19.1 0.00 0.00 0.00 34 1010.3
20260508141003 62 324 7.8 16.5 0.00 0.00 0.00 35 1010.3
20260508140003 62 239 7.0 12.2 0.00 0.00 0.00 41 1010.5
20260508135003 62 278 5.2 14.8 0.00 0.00 0.00 40 1010.4
20260508134024 60 280 7.0 14.8 0.00 0.00 0.00 44 1010.7
20260508133003 59 277 7.8 12.2 0.00 0.00 0.00 46 1010.5
20260508132003 57 283 6.1 12.2 0.00 0.00 0.00 44 1010.8
20260508131003 56 295 7.8 12.2 0.00 0.00 0.00 48 1010.5
20260508130003 55 250 5.2 8.7 0.00 0.01 0.00 50 1010.8
20260508125003 57 228 4.3 8.7 0.00 0.01 0.00 51 1010.6
20260508124003 57 284 5.2 8.7 0.00 0.01 0.00 50 1010.6
20260508123003 54 185 4.3 8.7 0.00 0.01 0.00 56 1010.6
20260508122003 52 254 4.3 6.1 0.00 0.02 0.00 58 1010.7
20260508121003 50 239 4.3 7.8 0.00 0.03 0.00 61 1010.6
20260508120003 50 250 4.3 7.8 0.00 0.04 0.00 63 1010.6
20260508115003 49 256 4.3 7.0 0.00 0.05 0.00 63 1010.8
20260508114003 49 270 1.7 7.8 0.00 0.05 0.00 64 1010.9
20260508113024 48 315 5.2 7.8 0.00 0.05 0.00 64 1010.8
20260508112003 48 303 1.7 3.5 0.00 0.07 0.00 64 1010.7
20260508111003 47 216 0.9 5.2 0.00 0.09 0.00 66 1010.4
20260508110003 46 289 2.6 5.2 0.00 0.09 0.00 67 1010.6
20260508105003 46 247 1.7 5.2 0.00 0.09 0.00 69 1010.4
20260508104003 45 243 2.6 5.2 0.00 0.10 0.00 68 1010.3
20260508103004 45 275 3.5 5.2 0.00 0.11 0.00 67 1010.2
20260508102003 45 255 2.6 7.0 0.00 0.11 0.00 67 1010.1
20260508101003 44 261 2.6 7.0 0.00 0.12 0.00 69 1010.0
20260508100003 44 252 2.6 4.3 0.00 0.13 0.00 66 1010.0
20260508095003 44 247 3.5 4.3 0.00 0.14 0.00 66 1009.9
20260508094003 44 261 2.6 4.3 0.00 0.14 0.00 66 1009.8
20260508093025 44 253 1.7 6.1 0.00 0.14 0.00 65 1009.8
20260508092003 44 242 2.6 6.1 0.00 0.17 0.00 66 1009.8
20260508091024 44 257 5.2 6.1 0.00 0.19 0.00 65 1009.6
20260508090003 44 255 2.6 4.3 0.00 0.21 0.00 64 1009.6
20260508085002 44 243 2.6 3.5 0.00 0.23 0.00 62 1009.2
20260508084003 45 247 2.6 3.5 0.00 0.24 0.00 62 1009.1
20260508083003 46 247 1.7 3.5 0.00 0.27 0.00 60 1009.2
20260508082003 46 224 1.7 4.3 0.00 0.32 0.00 59 1008.9
20260508081003 46 280 2.6 4.3 0.00 0.45 0.00 57 1008.5
20260508080003 46 298 2.6 4.3 0.00 0.50 0.00 57 1008.6
20260508075003 47 306 2.6 4.3 0.00 0.50 0.00 56 1008.6
20260508074003 47 283 0.0 4.3 0.00 0.50 0.00 56 1008.2
20260508073003 48 259 1.7 5.2 0.00 0.50 0.00 56 1008.2
20260508072003 48 337 1.7 6.1 0.00 0.50 0.00 54 1008.1
20260508071003 48 19 2.6 7.0 0.00 0.50 0.00 53 1008.0
20260508070003 48 351 5.2 9.6 0.00 0.50 0.00 53 1008.1
20260508065003 49 19 3.5 9.6 0.00 0.50 0.00 53 1008.1
20260508064003 49 306 4.3 8.7 0.00 0.50 0.00 53 1008.0
20260508063003 49 340 4.3 10.4 0.00 0.50 0.00 52 1008.0
20260508062003 50 327 5.2 10.4 0.00 0.51 0.00 50 1007.9
20260508061003 50 318 6.1 8.7 0.00 0.51 0.00 51 1008.0
20260508060003 50 336 6.1 7.8 0.00 0.51 0.00 51 1007.8
20260508055004 50 358 3.5 7.8 0.00 0.51 0.00 49 1007.9
20260508054003 51 334 4.3 8.7 0.00 0.51 0.00 49 1007.9
20260508053004 51 312 4.3 10.4 0.00 0.51 0.00 48 1007.9
20260508052003 52 330 7.0 15.6 0.00 0.51 0.00 47 1008.0
20260508051024 52 341 7.0 16.5 0.00 0.51 0.00 47 1007.9
20260508050003 52 329 6.1 16.5 0.00 0.52 0.00 47 1008.0
20260508045004 52 351 7.0 13.9 0.00 0.52 0.00 48 1007.9
20260508044003 52 340 8.7 13.0 0.00 0.52 0.00 48 1007.8
20260508043025 52 312 7.0 13.0 0.00 0.52 0.00 48 1008.0
20260508042003 52 331 8.7 13.0 0.00 0.52 0.00 48 1007.9
20260508041003 52 337 6.1 13.0 0.00 0.52 0.00 47 1007.9
20260508040003 52 339 7.0 11.3 0.00 0.52 0.00 47 1007.9
20260508035003 52 326 5.2 9.6 0.00 0.52 0.52 48 1008.0
20260508034003 52 313 4.3 9.6 0.00 0.52 0.52 50 1008.0
20260508033003 52 344 5.2 9.6 0.00 0.52 0.52 49 1008.0
20260508032003 52 276 4.3 7.8 0.00 0.52 0.52 51 1008.0
20260508031003 52 22 5.2 7.0 0.00 0.52 0.52 51 1008.2
20260508030003 52 223 4.3 7.8 0.00 0.52 0.52 51 1008.0
20260508025002 52 249 4.3 8.7 0.00 0.52 0.52 50 1008.2
20260508024003 53 302 5.2 10.4 0.00 0.52 0.52 48 1008.1
20260508023003 53 276 5.2 13.9 0.00 0.52 0.52 47 1008.0
20260508022003 53 264 7.8 13.9 0.00 0.52 0.52 48 1008.1
20260508021003 54 312 4.3 11.3 0.00 0.52 0.52 48 1008.0
20260508020003 54 261 7.0 15.6 0.00 0.52 0.52 47 1008.0
20260508015003 54 278 7.8 15.6 0.00 0.52 0.52 46 1008.0
20260508014003 54 296 7.8 11.3 0.00 0.52 0.52 48 1008.0
20260508013003 54 288 5.2 11.3 0.00 0.52 0.52 48 1007.7
20260508012003 55 294 7.0 11.3 0.00 0.52 0.52 47 1007.8